Location: D�pe
(52.6057°N, 8.1808°E)
Time: 07:43:37
(UTC+00:00)

Cosmos 1503 Rocket - Pass Details

Date: 29 October 2020
Orbit: 752 x 791 km, 74.0° (Epoch: 01 December)

Event Time Altitude Azimuth Distance (km) Brightness Sun altitude
Rises 17:13:44 0° 335° (NNW) 3,229 7.5 -11.3°
Reaches altitude 10° 17:16:09 10° 340° (NNW) 2,304 6.6 -11.7°
Maximum altitude 17:21:18 58° 60° (ENE) 892 4.0 -12.5°
Drops below altitude 10° 17:26:29 10° 139° (SE) 2,313 6.2 -13.2°
Sets 17:28:54 0° 144° (SE) 3,243 6.9 -13.6°
